Location: *
(51.1248°S, 108.4023°W)
Time: 01:25:35
(UTC+00:00)

Cosmos 1656 - Pass Details

Date: 30 October 2021
Orbit: 799 x 848 km, 71.1° (Epoch: 30 November)

Event Time Altitude Azimuth Distance (km) Brightness Sun altitude
Exits shadow 10:11:26 15° 333° (NNW) 2,141 5.2 -12.5°
Maximum altitude 10:16:15 88° 60° (ENE) 864 3.8 -11.9°
Drops below altitude 10° 10:22:03 10° 150° (SSE) 2,510 7.4 -11.2°
Sets 10:24:32 0° 149° (SSE) 3,453 8.4 -10.9°
